Weather History for Kirksville, MO

Change the Weather History Date:

Sunday, December 16, 2012

  Actual Average Record
Temperature  
Mean Temperature 4 °C -2 °C  
Max Temperature 7 °C 3 °C 17 °C (2006)
Min Temperature 2 °C -7 °C -26 °C (1932)
Degree Days  
Heating Degree Days 25 37  
Month to date heating degree days 383 552  
Since 1 July heating degree days 1653 1773  
Cooling Degree Days 0 0  
Month to date cooling degree days 0 0  
Year to date cooling degree days 1321 939  
Moisture  
Dew Point 1 °C    
Average Humidity 84    
Maximum Humidity 89    
Minimum Humidity 79    
Precipitation  
Precipitation 0.00 mm 1.27 mm 1.93 mm (1992)
Month to date precipitation 0.61 0.99  
Year to date precipitation 27.03 38.55  
Sea Level Pressure  
Sea Level Pressure 1007 hPa    
Wind  
Wind Speed 9 km/h (NW)    
Max Wind Speed 26 km/h    
Max Gust Speed 35 km/h    
Visibility 12 kilometers    
Events      
T = Trace of Precipitation, MM = Missing Value Source: NWS Daily Summary

Daily Weather History Graph

Daily Weather History Graph

Search for Another Location

Airport:

Trip Planner

Search our weather history database for the weather conditions in past years. The results will help you decide how hot, cold, wet, or windy it might be!

Date:

Astronomy

Dec. 16, 2012 Rise Set
Actual Time 7:26 AM CST 4:46 PM CST
Civil Twilight 6:55 AM CST 5:16 PM CST
Nautical Twilight 6:21 AM CST 5:50 PM CST
Astronomical Twilight 5:48 AM CST 6:23 PM CST
Moon 9:59 AM CST (12/16) 9:00 PM CST (12/16)
Length of Visible Light 10h 21m
Length of Day
9h 19m
Waxing Crescent, 16% of the Moon is Illuminated
Dec 16
Waxing Crescent
Dec 19
First Quarter
Dec 28
Full
Jan 4
Last Quarter
Jan 11
New

Hourly Weather History & Observations

Time (CST) Temp. Windchill Dew Point Humidity Pressure Visibility Wind Dir Wind Speed Gust Speed Precip Events Conditions
12:06 AM 7.0 °C 4.0 °C 4.0 °C 81% 1004.6 hPa 14.5 km West 16.7 km/h / 4.6 m/s 27.8 km/h / 7.7 m/s N/A   Overcast
12:19 AM 7.0 °C 4.3 °C 4.0 °C 81% 1005.0 hPa 14.5 km West 14.8 km/h / 4.1 m/s - N/A   Overcast
12:50 AM 6.0 °C 2.8 °C 4.0 °C 87% 1005.0 hPa 12.9 km West 16.7 km/h / 4.6 m/s - N/A   Overcast
12:55 AM 6.1 °C 2.9 °C 3.9 °C 86% 1005.5 hPa 12.9 km West 16.7 km/h / 4.6 m/s - N/A   Overcast
1:55 AM 5.6 °C 1.8 °C 3.3 °C 85% 1005.7 hPa 12.9 km West 20.4 km/h / 5.7 m/s 31.5 km/h / 8.7 m/s N/A   Overcast
2:55 AM 4.4 °C 0.3 °C 2.2 °C 86% 1006.1 hPa 11.3 km WNW 20.4 km/h / 5.7 m/s - N/A   Overcast
3:55 AM 3.9 °C 0.4 °C 1.7 °C 86% 1006.3 hPa 11.3 km West 14.8 km/h / 4.1 m/s - N/A   Overcast
4:55 AM 3.9 °C 1.1 °C 1.7 °C 86% 1006.9 hPa 14.5 km NW 11.1 km/h / 3.1 m/s - N/A   Overcast
5:55 AM 3.9 °C 1.5 °C 1.7 °C 86% 1007.1 hPa 14.5 km NW 9.3 km/h / 2.6 m/s - N/A   Overcast
6:55 AM 3.0 °C 0.0 °C 1.0 °C 87% 1006.7 hPa 12.9 km WNW 11.1 km/h / 3.1 m/s - N/A   Overcast
7:55 AM 2.8 °C 0.2 °C 0.6 °C 86% 1008.0 hPa 11.3 km West 9.3 km/h / 2.6 m/s - N/A   Overcast
8:55 AM 2.8 °C 0.2 °C 1.1 °C 89% 1008.4 hPa 11.3 km NW 9.3 km/h / 2.6 m/s - N/A   Overcast
9:55 AM 3.3 °C 0.4 °C 1.1 °C 86% 1008.3 hPa 11.3 km NW 11.1 km/h / 3.1 m/s - N/A   Overcast
10:55 AM 3.3 °C 2.0 °C 0.6 °C 83% 1008.5 hPa 11.3 km NW 5.6 km/h / 1.5 m/s - N/A   Overcast
11:55 AM 3.9 °C 1.5 °C 0.6 °C 79% 1007.2 hPa 12.9 km North 9.3 km/h / 2.6 m/s - N/A   Overcast
12:55 PM 3.3 °C 1.3 °C 0.6 °C 83% 1006.7 hPa 9.7 km North 7.4 km/h / 2.1 m/s - N/A   Haze
1:55 PM 3.3 °C - 0.6 °C 83% 1006.2 hPa 9.7 km Calm Calm - N/A   Haze
2:55 PM 3.3 °C 1.3 °C 0.6 °C 83% 1006.5 hPa 12.9 km North 7.4 km/h / 2.1 m/s - N/A   Overcast
3:55 PM 3.9 °C 2.0 °C 1.1 °C 82% 1007.1 hPa 12.9 km North 7.4 km/h / 2.1 m/s - N/A   Overcast
4:55 PM 3.3 °C - 1.1 °C 86% 1007.8 hPa 14.5 km Calm Calm - N/A   Overcast
5:55 PM 3.3 °C 1.3 °C 1.1 °C 86% 1008.0 hPa 9.7 km North 7.4 km/h / 2.1 m/s - N/A   Overcast
6:55 PM 2.8 °C 1.4 °C 0.6 °C 86% 1008.7 hPa 11.3 km North 5.6 km/h / 1.5 m/s - N/A   Overcast
7:55 PM 2.8 °C - 0.0 °C 82% 1009.4 hPa 11.3 km Calm Calm - N/A   Overcast
8:55 PM 2.8 °C 0.7 °C 0.0 °C 82% 1009.5 hPa 12.9 km North 7.4 km/h / 2.1 m/s - N/A   Overcast
9:55 PM 2.2 °C -0.9 °C -0.6 °C 82% 1009.0 hPa 11.3 km North 11.1 km/h / 3.1 m/s - N/A   Overcast
10:55 PM 2.2 °C -0.5 °C -1.1 °C 79% 1009.3 hPa 12.9 km North 9.3 km/h / 2.6 m/s - N/A   Overcast
11:55 PM 1.7 °C 0.1 °C -1.1 °C 82% 1008.8 hPa 11.3 km North 5.6 km/h / 1.5 m/s - N/A   Overcast